Location: Martin Dies, Jr. State Park
(30.8429°N, 94.1720°W)
Time: 11:42:23
(UTC-05:00)

ISS - Visible Passes

Search period start: 22 April 2021 00:00
Search period end: 02 May 2021 00:00
Orbit: 418 x 421 km, 51.6° (Epoch: 22 April)

Date Brightness Start Highest point End Pass type
(mag) Time Alt. Az. Time Alt. Az. Time Alt. Az.
23 Apr -3.4 05:41:05 17° SSW 05:43:31 62° SE 05:46:51 10° NE visible
24 Apr -2.4 04:55:56 29° SE 04:56:13 30° SE 04:59:13 10° ENE visible
25 Apr -0.6 04:10:41 12° E 04:10:41 12° E 04:11:08 10° E visible
25 Apr -2.7 05:43:40 18° W 05:45:34 32° NW 05:48:39 10° NNE visible
26 Apr -3.6 04:58:19 61° NNW 04:58:19 61° NNW 05:01:30 10° NE visible
27 Apr -1.1 04:12:52 21° NE 04:12:52 21° NE 04:14:08 10° NE visible
27 Apr -1.3 05:46:27 10° WNW 05:47:53 12° NNW 05:49:20 10° N visible
28 Apr -1.8 05:00:19 19° NW 05:00:19 19° NW 05:02:50 10° N visible
29 Apr -1.1 04:14:44 18° NNE 04:14:44 18° NNE 04:15:54 10° NNE visible
01 May -0.7 04:16:21 10° N 04:16:21 10° N 04:16:31 10° N visible
